1513044000.51,28387,4.94,71934.0,-1.93,-7.15,-5.65,0,*58
1513044001.71,28388,4.94,71932.8,-1.93,-7.53,-5.55,0,*56
1513044002.96,28389,4.94,71942.8,-1.91,-6.09,-5.15,0,*5F
1513044004.19,28390,4.94,71880.0,-1.91,-6.89,-6.35,0,*5E
1513044005.44,28391,4.94,71852.0,-1.91,-5.55,-5.81,0,*51
1513044006.66,28392,4.94,71790.0,-1.91,-4.65,-5.51,0,*5D
1513044007.91,28393,4.94,71806.0,-1.91,-4.53,-5.27,0,*58
1513044009.16,28394,4.94,71858.0,-1.91,-5.03,-6.01,0,*5C
1513044010.4,28395,4.94,71916.5,-1.91,-6.05,-7.27,0,*5D
1513044011.65,28396,4.94,71942.8,-1.91,-6.97,-7.15,0,*54
1513044012.9,28397,4.94,71950.3,-1.91,-6.89,-6.19,0,*57
1513044014.15,28398,4.94,71918.5,-1.91,-7.61,-6.09,0,*5E
1513044015.4,28399,4.94,71854.8,-1.91,-6.55,-5.15,0,*57
1513044016.65,28400,4.94,71880.8,-1.91,-5.15,-4.21,0,*51
1513044017.86,28401,4.94,71964.0,-1.93,-4.25,-3.47,0,*57
1513044019.11,28402,4.94,71888.3,-1.91,-4.01,-3.23,0,*52
1513044020.33,28403,4.94,71802.0,-1.89,-3.79,-3.43,0,*54
1513044021.55,28404,4.94,71804.3,-1.91,-4.61,-4.49,0,*59
1513044022.8,28405,4.94,71814.8,-1.91,-6.23,-7.83,0,*59
1513044024.03,28406,4.94,71818.0,-1.91,-7.83,-10.23,0,*6D
1513044025.28,28407,4.94,71828.0,-1.91,-9.01,-11.85,0,*65
1513044026.54,28408,4.94,71944.5,-1.91,-11.01,-11.51,0,*5A
1513044027.77,28409,4.94,71936.0,-1.91,-14.61,-14.69,0,*56
1513044029.05,28410,4.94,71924.8,-1.91,-17.21,-17.25,0,*52
1513044030.33,28411,4.94,71936.3,-1.91,-18.55,-15.57,0,*58
1513044031.58,28412,4.94,71932.5,-1.89,-18.59,-19.23,0,*51
1513044032.79,28413,4.94,71926.3,-1.89,-22.93,-22.53,0,*50
1513044034.02,28414,4.94,71962.8,-1.89,-23.49,-21.77,0,*54
1513044035.28,28415,4.94,71990.3,-1.91,-23.23,-19.95,0,*57
1513044036.51,28416,4.94,71990.0,-1.91,-22.41,-18.41,0,*59
1513044037.77,28417,4.94,72016.5,-1.91,-21.53,-17.73,0,*56
1513044038.97,28418,4.94,71986.3,-1.93,-20.93,-17.73,0,*56
1513044040.2,28419,4.94,71972.8,-1.93,-20.89,-17.63,0,*5D
1513044041.47,28420,4.94,71966.5,-1.93,-21.03,-17.07,0,*56
1513044042.72,28421,4.94,71972.5,-1.91,-21.39,-17.21,0,*58
1513044043.98,28422,4.94,71994.8,-1.91,-21.73,-16.65,0,*54
1513044045.24,28423,4.94,71974.3,-1.91,-21.53,-15.63,0,*52
1513044046.45,28424,4.94,71948.5,-1.93,-19.95,-14.19,0,*5A
1513044047.68,28425,4.94,71920.3,-1.91,-17.83,-12.97,0,*50
1513044048.91,28426,4.94,71922.0,-1.93,-15.15,-11.77,0,*51
1513044050.13,28427,4.94,71930.5,-1.93,-11.37,-9.97,0,*63
1513044051.33,28428,4.94,71928.5,-1.93,-8.71,-8.29,0,*52
1513044052.57,28429,4.94,71938.0,-1.93,-7.39,-7.27,0,*51
1513044053.78,28430,4.94,71938.8,-1.93,-7.49,-7.95,0,*57
1513044055.03,28431,4.94,71954.5,-1.91,-8.59,-9.11,0,*58
1513044056.22,28432,4.94,71970.3,-1.93,-9.71,-8.75,0,*51
1513044057.41,28433,4.94,71968.0,-1.93,-9.71,-8.29,0,*59
1513044058.64,28434,4.94,71958.3,-1.91,-8.89,-7.53,0,*58
1513044059.88,28435,4.94,71956.0,-1.93,-7.61,-7.01,0,*55
1513044061.07,28436,4.94,71960.0,-1.93,-6.69,-6.55,0,*5F
1513044062.27,28437,4.94,71958.0,-1.93,-6.31,-6.47,0,*50
1513044063.51,28438,4.94,71952.3,-1.91,-5.93,-6.05,0,*50
1513044064.76,28439,4.94,71952.8,-1.91,-5.39,-5.15,0,*53
1513044066.02,28440,4.94,71946.3,-1.93,-5.15,-5.31,0,*57
1513044067.29,28441,4.94,71940.8,-1.91,-5.03,-5.15,0,*55
1513044068.51,28442,4.94,71942.0,-1.93,-4.99,-4.85,0,*5E
1513044069.72,28443,4.94,71938.3,-1.93,-4.77,-4.37,0,*56
1513044070.96,28444,4.94,71948.0,-1.91,-4.37,-4.01,0,*52
1513044072.19,28445,4.94,71944.0,-1.91,-4.25,-3.75,0,*54
1513044073.38,28446,4.94,71952.0,-1.93,-4.25,-3.83,0,*5C
1513044074.57,28447,4.94,71958.5,-1.93,-4.53,-3.83,0,*5C
1513044075.78,28448,4.94,71952.8,-1.93,-4.99,-4.01,0,*58
1513044077.03,28449,4.94,71948.8,-1.91,-5.15,-4.13,0,*5D
1513044078.22,28450,4.94,71962.0,-1.93,-5.43,-4.25,0,*51
1513044079.45,28451,4.94,71980.5,-1.91,-5.51,-4.37,0,*52
1513044080.66,28452,4.94,71986.8,-1.93,-4.99,-4.01,0,*53
1513044081.9,28453,5.0,71978.5,-1.91,-4.77,-3.87,0,*59
1513044083.14,28454,4.94,71996.0,-1.91,-5.27,-4.09,0,*5B
1513044084.39,28455,4.94,71982.8,-1.91,-5.51,-4.01,0,*53
1513044085.6,28456,4.94,71990.5,-1.93,-5.11,-3.83,0,*5B
1513044086.81,28457,4.94,71982.3,-1.91,-4.53,-3.83,0,*5F
1513044088.03,28458,4.94,71998.0,-1.91,-4.09,-3.87,0,*5B
1513044089.26,28459,4.94,71992.3,-1.91,-3.83,-3.95,0,*5C
1513044090.46,28460,4.94,71998.0,-1.89,-3.83,-3.95,0,*5F
1513044091.66,28461,4.94,72008.8,-1.89,-3.83,-4.33,0,*55
1513044092.89,28462,4.94,72006.8,-1.89,-4.21,-4.73,0,*5D
1513044094.11,28463,4.94,72004.0,-1.89,-4.61,-5.11,0,*5D
1513044095.33,28464,4.94,72002.0,-1.89,-4.61,-5.11,0,*5A
1513044096.57,28465,4.94,72012.0,-1.87,-4.53,-4.93,0,*5F
1513044097.79,28466,4.94,72024.0,-1.89,-4.57,-4.93,0,*56
1513044098.98,28467,4.94,72034.8,-1.89,-5.47,-5.39,0,*56
1513044100.2,28468,4.94,72016.0,-1.89,-7.43,-6.43,0,*51
1513044101.43,28469,4.94,72012.8,-1.89,-10.01,-7.99,0,*66
1513044102.65,28470,4.94,72014.5,-1.89,-10.71,-8.85,0,*6B
1513044103.86,28471,4.94,71996.0,-1.89,-10.15,-8.37,0,*61
1513044105.06,28472,4.94,71978.5,-1.89,-11.45,-9.31,0,*61
1513044106.3,28473,4.94,71978.3,-1.91,-11.45,-8.89,0,*6B
1513044107.58,28474,4.94,71972.8,-1.91,-10.63,-7.77,0,*67
1513044108.82,28475,4.94,71966.5,-1.91,-11.23,-8.03,0,*6F
1513044110.05,28476,4.94,71952.8,-1.91,-13.43,-9.27,0,*6F
1513044111.3,28477,4.94,71940.0,-1.91,-15.15,-9.83,0,*65
1513044112.56,28478,4.94,71938.5,-1.91,-16.23,-10.89,0,*5E
1513044113.79,28479,4.94,71956.0,-1.93,-17.35,-13.01,0,*58
1513044115.04,28480,4.94,71956.5,-1.91,-18.25,-13.83,0,*58
1513044116.29,28481,4.94,71950.8,-1.91,-20.15,-14.33,0,*5D
1513044117.55,28482,4.94,71902.3,-1.91,-21.23,-14.29,0,*51
1513044118.78,28483,4.94,71866.8,-1.91,-20.73,-14.15,0,*5B
1513044120.03,28484,5.0,71946.5,-1.93,-20.15,-14.01,0,*5B
1513044121.26,28485,4.94,71946.0,-1.91,-19.47,-13.69,0,*5C
1513044122.49,28486,4.94,71954.5,-1.93,-19.47,-15.21,0,*57
1513044123.77,28487,4.94,71956.3,-1.91,-19.65,-17.55,0,*55
1513044125.0,28488,4.94,71984.3,-1.91,-22.03,-18.69,0,*52
1513044126.23,28489,4.94,71972.8,-1.93,-22.63,-17.97,0,*59
1513044127.52,28490,4.94,71990.0,-1.91,-22.77,-17.55,0,*58
1513044128.73,28491,4.94,71992.0,-1.93,-23.09,-16.79,0,*5C
1513044129.96,28492,4.94,71994.3,-1.93,-22.93,-16.09,0,*5A
1513044131.22,28493,4.94,71992.5,-1.91,-22.57,-14.93,0,*50
1513044132.45,28494,4.94,71984.3,-1.91,-22.11,-13.69,0,*57
1513044133.71,28495,4.94,71978.3,-1.93,-21.53,-11.73,0,*58
1513044134.91,28496,4.94,71970.0,-1.93,-20.25,-9.93,0,*6C
1513044136.18,28497,4.94,71942.8,-1.91,-18.01,-8.03,0,*6A
1513044137.38,28498,4.94,71918.5,-1.93,-14.61,-6.09,0,*69
1513044138.65,28499,4.94,71874.8,-1.91,-11.51,-4.77,0,*67
1513044139.86,28500,4.94,71880.5,-1.91,-8.33,-4.33,0,*5A
1513044141.06,28501,4.94,71876.5,-1.93,-6.31,-4.13,0,*57
1513044142.29,28502,4.94,71846.3,-1.93,-5.15,-4.21,0,*50
1513044143.51,28503,4.94,71832.3,-1.91,-4.65,-4.37,0,*52
1513044144.7,28504,4.94,71852.8,-1.93,-4.53,-4.37,0,*52
1513044145.94,28505,4.94,71896.3,-1.89,-4.81,-4.85,0,*5E
1513044147.14,28506,4.94,71896.8,-1.89,-5.51,-6.01,0,*5F
1513044148.33,28507,4.94,71872.8,-1.89,-6.55,-7.19,0,*51
1513044149.53,28508,4.94,71878.5,-1.89,-8.25,-8.37,0,*54
1513044150.73,28509,4.94,71886.3,-1.89,-9.79,-8.97,0,*57
1513044151.93,28510,4.94,71896.3,-1.89,-11.11,-9.01,0,*66
1513044153.14,28511,4.94,71914.0,-1.89,-11.97,-8.67,0,*68
1513044154.39,28512,4.94,71920.0,-1.87,-12.53,-8.21,0,*6C
1513044155.65,28513,4.94,71912.5,-1.89,-13.29,-8.11,0,*6C
1513044156.84,28514,5.0,71916.5,-1.89,-13.93,-8.17,0,*6C
1513044158.1,28515,4.94,71948.8,-1.89,-13.97,-7.99,0,*60
1513044159.37,28516,4.94,71958.5,-1.91,-13.61,-8.03,0,*6F
1513044160.62,28517,4.94,71960.3,-1.91,-12.89,-7.95,0,*69
1513044161.81,28518,4.94,71978.5,-1.89,-12.43,-8.29,0,*61
1513044163.01,28519,5.0,72002.8,-1.89,-12.29,-8.93,0,*6D
1513044164.22,28520,4.94,72016.3,-1.89,-12.93,-9.79,0,*63
1513044165.46,28521,4.94,72024.5,-1.89,-14.51,-11.01,0,*5C
1513044166.72,28522,4.94,72052.5,-1.89,-16.17,-12.71,0,*5B
1513044167.92,28523,4.94,72060.3,-1.89,-18.41,-14.69,0,*58
1513044169.16,28524,4.94,72024.5,-1.91,-20.25,-15.75,0,*53
1513044170.38,28525,4.94,71970.0,-1.89,-20.69,-16.31,0,*50
1513044171.59,28526,5.0,71910.0,-1.89,-21.77,-18.07,0,*56
1513044172.85,28527,4.94,71896.5,-1.89,-22.21,-19.41,0,*54
1513044174.08,28528,4.94,71906.3,-1.89,-22.87,-20.83,0,*53
1513044175.31,28529,5.0,71898.8,-1.89,-22.77,-21.43,0,*50
1513044176.56,28530,4.94,71916.5,-1.87,-22.83,-21.87,0,*55
1513044177.8,28531,4.94,71902.8,-1.87,-23.13,-22.53,0,*56
1513044179.05,28532,4.94,71904.0,-1.87,-23.53,-23.13,0,*54
1513044180.32,28533,4.94,71900.5,-1.87,-23.69,-23.69,0,*51
1513044181.54,28534,4.94,71950.8,-1.89,-23.69,-23.75,0,*55
1513044182.8,28535,5.0,71876.0,-1.89,-23.29,-23.33,0,*52
1513044184.05,28536,4.94,71890.5,-1.87,-23.03,-23.13,0,*55
1513044185.28,28537,4.94,71864.3,-1.89,-22.37,-22.73,0,*5B
1513044186.51,28538,4.94,71862.0,-1.85,-22.31,-22.67,0,*5B
1513044187.71,28539,5.0,71854.8,-1.85,-22.67,-22.57,0,*5A
1513044189.0,28540,4.94,71872.5,-1.83,-22.77,-21.87,0,*5D
1513044190.21,28541,4.94,71876.5,-1.85,-22.87,-20.69,0,*54
1513044191.4,28542,4.94,71902.8,-1.85,-22.83,-18.83,0,*5C
1513044192.64,28543,4.94,71900.5,-1.83,-22.97,-18.17,0,*53
1513044193.85,28544,4.94,71952.3,-1.85,-22.57,-18.07,0,*5F
1513044195.08,28545,4.94,71906.0,-1.83,-22.53,-18.41,0,*5E
1513044196.31,28546,4.94,71872.5,-1.83,-22.63,-18.25,0,*5C
1513044197.54,28547,4.94,71830.5,-1.83,-22.93,-17.49,0,*57
1513044198.78,28548,4.94,71770.3,-1.83,-23.09,-16.59,0,*5A
1513044200.05,28549,4.94,71754.8,-1.83,-23.13,-16.09,0,*55
1513044201.34,28550,4.94,71822.5,-1.83,-22.77,-15.35,0,*52
1513044202.57,28551,4.94,71832.5,-1.85,-22.21,-14.61,0,*56
1513044203.85,28552,4.94,71824.5,-1.83,-21.57,-13.33,0,*51
1513044205.09,28553,4.94,71806.8,-1.85,-19.99,-11.63,0,*58
1513044206.33,28554,4.94,71816.5,-1.83,-18.41,-10.09,0,*50
1513044207.59,28555,4.94,71816.5,-1.83,-16.65,-8.89,0,*68
1513044208.81,28556,5.0,71830.0,-1.85,-14.37,-7.73,0,*62
1513044210.07,28557,4.94,71828.3,-1.83,-12.57,-7.23,0,*60
1513044211.32,28558,4.94,71834.0,-1.85,-11.37,-7.01,0,*6C
1513044212.57,28559,5.0,71850.0,-1.85,-10.67,-7.01,0,*69
1513044213.82,28560,4.94,71840.5,-1.83,-10.89,-6.97,0,*6B
1513044215.05,28561,4.94,71848.8,-1.85,-12.03,-7.27,0,*66
1513044216.3,28562,5.0,71866.0,-1.83,-13.69,-7.27,0,*6E
1513044217.52,28563,4.94,71858.3,-1.85,-15.07,-7.31,0,*60
1513044218.72,28564,4.94,71856.3,-1.85,-15.49,-6.89,0,*6F
1513044219.97,28565,4.94,71888.5,-1.83,-14.75,-6.05,0,*62
1513044221.16,28566,4.94,71882.5,-1.85,-13.07,-5.43,0,*64
1513044222.39,28567,4.94,71894.3,-1.85,-11.15,-4.81,0,*6B
1513044223.64,28568,5.0,71898.8,-1.83,-9.11,-4.41,0,*53
1513044224.86,28569,4.94,71850.8,-1.85,-7.05,-4.45,0,*5B
1513044226.11,28570,4.94,71842.8,-1.83,-5.89,-4.29,0,*59
1513044227.33,28571,4.94,71860.5,-1.85,-5.23,-4.13,0,*57
1513044228.57,28572,4.94,71888.0,-1.85,-4.93,-4.01,0,*5D
1513044229.78,28573,4.94,71878.5,-1.83,-4.65,-3.87,0,*5A
1513044231.0,28574,4.94,71866.5,-1.83,-4.53,-3.83,0,*5C
1513044232.21,28575,4.94,71934.8,-1.85,-4.53,-3.63,0,*55
1513044233.41,28576,4.94,71964.5,-1.85,-4.45,-3.55,0,*54
1513044234.63,28577,5.0,71906.8,-1.85,-4.25,-3.51,0,*57
1513044235.88,28578,4.94,71816.5,-1.83,-4.25,-3.59,0,*56
1513044237.12,28579,4.94,71912.3,-1.83,-4.37,-3.59,0,*54
1513044238.34,28580,4.94,71906.0,-1.83,-5.43,-4.29,0,*50
1513044239.59,28581,4.94,71906.3,-1.83,-7.53,-4.77,0,*59
1513044240.86,28582,4.94,71852.8,-1.83,-9.53,-5.69,0,*5A
1513044242.09,28583,4.94,71830.5,-1.85,-11.45,-7.01,0,*6F
1513044243.34,28584,4.94,71994.3,-1.83,-13.83,-9.23,0,*68
1513044244.55,28585,5.0,71958.8,-1.85,-15.67,-10.97,0,*54
1513044245.84,28586,4.94,71860.0,-1.83,-17.25,-12.61,0,*5E
1513044247.09,28587,4.94,71856.0,-1.83,-18.31,-13.93,0,*59
1513044248.38,28588,5.0,71960.0,-1.83,-18.93,-14.75,0,*51
1513044249.64,28589,5.0,71918.0,-1.83,-20.63,-17.25,0,*52
1513044250.92,28590,4.94,71854.0,-1.83,-22.17,-18.59,0,*5F
1513044252.14,28591,5.0,71860.0,-1.85,-22.67,-18.93,0,*59
1513044253.34,28592,4.94,71844.3,-1.85,-22.83,-18.79,0,*54
1513044254.54,28593,4.94,71802.5,-1.85,-22.67,-18.79,0,*5F
1513044255.78,28594,4.94,71734.8,-1.83,-22.53,-20.25,0,*5B
1513044256.98,28595,5.0,71868.0,-1.85,-22.67,-21.13,0,*5F
1513044258.24,28596,5.0,71918.0,-1.83,-22.47,-21.13,0,*58
1513044259.54,28597,4.94,71916.0,-1.83,-21.53,-20.49,0,*51
1513044260.75,28598,4.94,71888.5,-1.85,-20.73,-20.89,0,*57
1513044262.02,28599,4.94,71914.8,-1.83,-21.87,-22.03,0,*5A
1513044263.3,28600,4.94,71870.3,-1.83,-23.23,-23.49,0,*5A
1513044264.53,28601,4.94,71884.5,-1.85,-23.79,-23.99,0,*5F
1513044265.75,28602,5.0,71880.0,-1.85,-23.79,-23.99,0,*5C
1513044266.98,28603,4.94,71888.5,-1.85,-23.79,-23.95,0,*51
1513044268.22,28604,4.94,71918.0,-1.85,-23.69,-23.95,0,*57
1513044269.46,28605,4.94,71932.5,-1.85,-23.69,-23.99,0,*5A
1513044270.71,28606,4.94,71940.3,-1.85,-23.99,-23.99,0,*56
1513044271.96,28607,4.94,71932.5,-1.85,-23.99,-23.69,0,*58
1513044273.19,28608,4.94,71936.3,-1.87,-22.87,-21.73,0,*52
1513044274.44,28609,4.94,71960.3,-1.85,-23.03,-20.83,0,*52
1513044275.71,28610,4.94,71904.5,-1.83,-21.53,-17.83,0,*5F
1513044276.92,28611,4.94,71952.8,-1.85,-18.07,-13.19,0,*54
1513044278.15,28612,4.94,71924.0,-1.83,-14.89,-9.97,0,*66
1513044279.35,28613,4.94,71868.5,-1.85,-13.07,-8.45,0,*6E
1513044280.57,28614,4.94,71912.8,-1.85,-12.35,-8.67,0,*69
1513044281.8,28615,4.94,71864.5,-1.85,-12.75,-10.57,0,*56
1513044283.06,28616,4.94,71878.3,-1.83,-15.75,-13.61,0,*52
1513044284.34,28617,4.94,71874.5,-1.83,-18.59,-16.23,0,*53
1513044285.55,28618,5.0,71930.3,-1.85,-19.99,-17.49,0,*5A
1513044286.78,28619,4.94,71928.8,-1.85,-19.99,-17.63,0,*53
1513044288.03,28620,4.94,71890.8,-1.85,-19.41,-17.25,0,*5E
1513044289.26,28621,4.94,71886.3,-1.85,-18.99,-15.81,0,*57
1513044290.52,28622,5.0,71892.0,-1.85,-18.01,-13.37,0,*5E
1513044291.75,28623,4.94,71876.0,-1.85,-15.71,-10.71,0,*54
1513044293.01,28624,4.94,71860.5,-1.83,-14.43,-10.27,0,*56
1513044294.25,28625,5.0,71848.8,-1.83,-13.73,-11.11,0,*57
1513044295.47,28626,4.94,71886.0,-1.85,-14.93,-13.65,0,*5A
1513044296.72,28627,4.94,71896.3,-1.85,-16.23,-15.85,0,*5A
1513044297.96,28628,4.94,71926.0,-1.85,-17.17,-17.73,0,*58
1513044299.22,28629,5.0,71966.3,-1.83,-18.93,-19.99,0,*56
1513044300.45,28630,4.94,71956.8,-1.85,-18.59,-19.91,0,*56
1513044301.68,28631,4.94,71980.5,-1.85,-18.83,-20.53,0,*54
1513044302.93,28632,4.94,71978.5,-1.87,-20.79,-22.53,0,*59
1513044304.14,28633,4.94,71968.5,-1.85,-22.37,-22.87,0,*5B
1513044305.39,28634,4.94,71918.0,-1.87,-22.67,-23.69,0,*5A
1513044306.63,28635,4.94,71994.0,-1.87,-23.79,-24.11,0,*5D
1513044307.91,28636,4.94,71952.5,-1.87,-23.69,-23.19,0,*50
1513044309.19,28637,5.0,72010.8,-1.87,-23.03,-22.21,0,*57
1513044310.45,28638,5.0,71990.5,-1.87,-22.57,-20.83,0,*52
1513044311.65,28639,5.0,72020.5,-1.89,-22.37,-19.13,0,*58
1513044312.91,28640,4.94,72022.0,-1.89,-21.57,-16.13,0,*5C
1513044314.14,28641,4.94,71890.3,-1.89,-20.53,-13.11,0,*5F
1513044315.35,28642,4.94,71874.0,-1.89,-18.69,-10.49,0,*50
1513044316.59,28643,4.94,71874.0,-1.87,-18.17,-9.57,0,*61
1513044317.84,28644,4.94,71874.8,-1.87,-17.45,-9.31,0,*6E
1513044319.06,28645,4.94,71908.8,-1.89,-17.31,-9.49,0,*6D
1513044320.28,28646,4.94,71920.3,-1.87,-15.63,-8.89,0,*68
1513044321.51,28647,4.94,71930.0,-1.89,-13.29,-7.87,0,*6E
1513044322.72,28648,5.0,71938.8,-1.89,-11.11,-6.81,0,*6F
1513044323.98,28649,4.94,71916.8,-1.87,-9.49,-6.23,0,*5C
1513044325.2,28650,4.94,71910.0,-1.87,-8.55,-6.01,0,*58
1513044326.42,28651,4.94,71902.3,-1.87,-8.55,-6.35,0,*5E
1513044327.64,28652,5.0,71856.5,-1.85,-9.19,-7.01,0,*50
1513044328.85,28653,4.94,71852.3,-1.85,-9.89,-7.57,0,*5B
1513044330.05,28654,4.94,71848.0,-1.85,-10.97,-8.55,0,*66
1513044331.27,28655,4.94,71864.0,-1.85,-11.81,-9.05,0,*65
1513044332.49,28656,5.0,71868.3,-1.85,-12.47,-9.57,0,*68
1513044333.72,28657,4.94,71896.3,-1.83,-13.07,-10.23,0,*51
1513044335.01,28658,4.94,71942.0,-1.83,-13.83,-11.37,0,*56
1513044336.25,28659,4.94,71966.8,-1.85,-13.97,-13.19,0,*5A
1513044337.45,28660,4.94,71938.0,-1.85,-14.61,-15.63,0,*55
1513044338.67,28661,5.0,71968.0,-1.85,-14.93,-18.17,0,*57
1513044339.94,28662,4.94,71974.5,-1.83,-15.81,-20.39,0,*57
1513044341.17,28663,4.94,71990.8,-1.85,-17.03,-21.77,0,*53
1513044342.41,28664,5.0,71962.8,-1.85,-17.41,-22.53,0,*57
1513044343.66,28665,4.94,71958.0,-1.83,-17.25,-22.67,0,*55
1513044344.92,28666,4.94,71918.5,-1.83,-17.11,-22.27,0,*55
1513044346.22,28667,4.94,71948.3,-1.83,-17.41,-21.23,0,*56
1513044347.48,28668,4.94,71970.0,-1.83,-17.41,-19.51,0,*57
1513044348.71,28669,5.0,71980.8,-1.85,-16.83,-17.25,0,*52
1513044349.94,28670,4.94,72004.0,-1.85,-15.95,-14.93,0,*50
1513044351.17,28671,4.94,71986.0,-1.83,-15.07,-12.89,0,*51
1513044352.39,28672,4.94,71932.5,-1.85,-14.69,-11.59,0,*53
1513044353.6,28673,4.94,71924.3,-1.85,-14.61,-10.57,0,*55
1513044354.85,28674,4.94,71950.0,-1.85,-14.05,-9.45,0,*6B
1513044356.06,28675,5.0,71976.5,-1.85,-13.51,-9.27,0,*68
1513044357.28,28676,5.0,72006.5,-1.85,-13.37,-9.89,0,*6F
1513044358.51,28677,4.94,72010.0,-1.85,-13.65,-11.07,0,*56
1513044359.74,28678,5.0,71974.3,-1.85,-14.83,-13.07,0,*54
1513044361.0,28679,4.94,71936.0,-1.83,-16.93,-14.75,0,*52
1513044362.21,28680,4.94,71934.5,-1.85,-18.65,-15.95,0,*5A
1513044363.44,28681,4.94,71920.0,-1.85,-18.79,-15.85,0,*57
1513044364.67,28682,4.94,71992.3,-1.85,-18.73,-16.23,0,*51
1513044365.95,28683,4.94,72008.0,-1.83,-18.31,-16.31,0,*53
1513044367.19,28684,4.94,71978.0,-1.85,-18.45,-17.03,0,*51
1513044368.42,28685,5.0,71934.0,-1.83,-19.03,-17.83,0,*5D
1513044369.62,28686,4.94,71952.0,-1.85,-20.05,-18.45,0,*51
1513044370.85,28687,5.0,71924.0,-1.85,-20.53,-19.13,0,*51
1513044372.08,28688,4.94,71906.8,-1.85,-20.69,-20.19,0,*57
1513044373.3,28689,5.0,71908.0,-1.85,-20.79,-21.73,0,*5A
1513044374.59,28690,4.94,71938.0,-1.83,-21.57,-23.49,0,*52
1513044375.81,28691,4.94,71950.0,-1.87,-22.87,-24.47,0,*50
1513044377.08,28692,4.94,71876.3,-1.87,-23.69,-24.67,0,*50
1513044378.36,28693,4.94,71874.5,-1.87,-24.25,-24.67,0,*5E
1513044379.6,28694,4.94,71870.8,-1.87,-24.31,-24.77,0,*5D
1513044380.85,28695,5.0,71904.5,-1.87,-24.57,-24.67,0,*5D
1513044382.08,28696,5.0,71984.5,-1.89,-24.35,-24.71,0,*53
1513044383.34,28697,5.0,71998.5,-1.87,-23.79,-24.25,0,*52
1513044384.57,28698,5.0,72004.5,-1.87,-22.97,-23.79,0,*52
1513044385.85,28699,5.0,71974.8,-1.87,-22.47,-23.29,0,*5B
1513044387.05,28700,4.94,71926.8,-1.89,-22.37,-22.87,0,*56
1513044388.26,28701,5.0,71940.0,-1.89,-22.11,-22.27,0,*59
1513044389.48,28702,4.94,71944.0,-1.89,-22.11,-21.97,0,*52
1513044390.71,28703,4.94,71958.0,-1.87,-22.03,-21.39,0,*5A
1513044391.94,28704,5.0,71948.8,-1.89,-21.67,-20.69,0,*56
1513044393.17,28705,5.0,71946.5,-1.89,-20.83,-19.91,0,*51
1513044394.41,28706,5.0,71950.0,-1.89,-19.95,-19.31,0,*55
1513044395.61,28707,4.94,71928.3,-1.89,-18.69,-19.03,0,*57
1513044396.81,28708,4.94,71952.5,-1.89,-18.25,-19.03,0,*50
1513044398.01,28709,4.94,71946.3,-1.89,-18.21,-18.21,0,*54
1513044399.25,28710,5.0,71904.0,-1.89,-16.59,-15.39,0,*59
1513044400.48,28711,4.94,71896.5,-1.89,-15.57,-14.23,0,*5F
1513044401.7,28712,5.0,71926.3,-1.87,-15.49,-13.73,0,*5F
1513044402.93,28713,4.94,71942.5,-1.89,-15.99,-15.43,0,*58
1513044404.14,28714,5.0,71966.8,-1.89,-19.13,-18.41,0,*5E
1513044405.43,28715,4.94,71966.8,-1.87,-21.53,-20.53,0,*56
1513044406.68,28716,4.94,71998.5,-1.91,-22.41,-21.83,0,*5E
1513044407.91,28717,4.94,72008.8,-1.91,-22.83,-23.13,0,*5A
1513044409.14,28718,4.94,71976.3,-1.91,-23.13,-23.59,0,*53
1513044410.38,28719,5.0,71998.8,-1.91,-23.09,-23.13,0,*57
1513044411.61,28720,4.94,71990.8,-1.91,-23.09,-22.41,0,*5B
1513044412.84,28721,4.94,71986.5,-1.89,-23.09,-21.83,0,*5E
1513044414.09,28722,5.0,71982.0,-1.89,-23.19,-20.89,0,*57
1513044415.34,28723,4.94,71988.5,-1.91,-23.23,-19.71,0,*5B
1513044416.6,28724,4.94,71978.8,-1.91,-22.97,-17.97,0,*54
1513044417.88,28725,5.0,72016.3,-1.91,-21.97,-15.57,0,*58
1513044419.12,28726,5.0,71978.5,-1.91,-19.17,-12.47,0,*5E
1513044420.4,28727,5.0,71958.0,-1.91,-16.31,-10.75,0,*57
1513044421.61,28728,5.0,71972.0,-1.89,-14.37,-11.11,0,*56
1513044422.87,28729,5.0,71942.5,-1.87,-14.23,-12.11,0,*5F
1513044424.12,28730,4.94,71862.8,-1.87,-16.51,-13.47,0,*52
1513044425.4,28731,5.0,71940.5,-1.87,-18.35,-14.93,0,*51
1513044426.63,28732,4.94,71970.8,-1.87,-19.71,-16.37,0,*5F
1513044427.88,28733,4.94,71960.5,-1.87,-19.75,-17.11,0,*5F
1513044429.13,28734,4.94,71878.3,-1.87,-19.99,-17.25,0,*5D
1513044430.39,28735,4.94,71924.0,-1.85,-21.27,-18.31,0,*5A
1513044431.62,28736,5.0,71944.0,-1.87,-21.63,-18.65,0,*5A
1513044432.84,28737,4.94,71936.5,-1.87,-21.63,-18.83,0,*53
1513044434.06,28738,5.0,71934.8,-1.89,-21.57,-18.99,0,*5E
1513044435.28,28739,5.0,71972.5,-1.87,-22.07,-19.13,0,*54
1513044436.53,28740,5.0,71846.0,-1.87,-22.31,-18.65,0,*5F
1513044437.79,28741,5.0,71906.8,-1.87,-21.23,-17.31,0,*50
1513044439.04,28742,4.94,71910.0,-1.89,-19.41,-15.85,0,*5F
1513044440.3,28743,5.0,71930.0,-1.89,-17.21,-14.97,0,*54
1513044441.55,28744,5.0,71912.0,-1.87,-15.81,-15.11,0,*5A
1513044442.78,28745,4.94,71938.8,-1.87,-16.55,-15.67,0,*50
1513044444.06,28746,5.0,71930.0,-1.87,-17.79,-15.85,0,*50
1513044445.32,28747,5.0,71956.3,-1.87,-18.45,-16.09,0,*56
1513044446.53,28748,5.0,71974.0,-1.89,-19.13,-16.41,0,*59
1513044447.82,28749,4.94,71966.5,-1.87,-19.61,-16.23,0,*57
1513044449.06,28750,5.0,71954.8,-1.89,-19.81,-15.85,0,*50
1513044450.33,28751,4.94,71940.5,-1.87,-19.99,-15.39,0,*51
1513044451.61,28752,5.0,71960.3,-1.87,-19.57,-15.35,0,*5C
1513044452.81,28753,5.0,71972.0,-1.85,-19.07,-15.67,0,*5D
1513044454.07,28754,4.94,71976.8,-1.87,-19.23,-16.37,0,*58
1513044455.31,28755,5.0,71972.8,-1.87,-20.29,-16.69,0,*52
1513044456.59,28756,4.94,71950.0,-1.87,-20.79,-16.69,0,*54
1513044457.81,28757,5.0,71974.5,-1.87,-20.29,-16.75,0,*5D
1513044459.08,28758,5.0,71936.8,-1.87,-20.35,-17.25,0,*5B
1513044460.28,28759,4.94,71906.8,-1.89,-20.73,-17.69,0,*5E
1513044461.52,28760,5.0,71900.3,-1.89,-21.03,-17.83,0,*56
1513044462.74,28761,5.0,71900.0,-1.87,-21.73,-18.17,0,*5C
1513044463.97,28762,4.94,71906.5,-1.87,-22.37,-18.17,0,*5C
1513044465.21,28763,5.0,71976.5,-1.89,-22.53,-17.59,0,*54
1513044466.46,28764,5.0,72000.0,-1.87,-22.57,-16.69,0,*5B
1513044467.72,28765,5.0,72032.8,-1.89,-22.21,-15.43,0,*5E
1513044468.98,28766,5.0,71990.8,-1.89,-21.27,-14.01,0,*5F
1513044470.21,28767,5.0,71966.5,-1.89,-20.19,-12.89,0,*54
1513044471.47,28768,5.0,71974.5,-1.89,-19.57,-11.81,0,*50
1513044472.7,28769,5.0,71930.0,-1.89,-18.89,-10.89,0,*5A
1513044473.94,28770,5.0,71936.3,-1.89,-17.59,-9.61,0,*6E
1513044475.18,28771,5.0,71924.0,-1.87,-16.23,-8.63,0,*6E
1513044476.42,28772,4.94,71892.3,-1.89,-15.01,-8.51,0,*61
1513044477.65,28773,5.0,71938.0,-1.89,-14.65,-9.49,0,*6B
1513044478.87,28774,5.0,71932.3,-1.87,-14.61,-10.45,0,*52
1513044480.15,28775,5.0,71916.8,-1.87,-14.79,-11.77,0,*5A
1513044481.36,28776,5.0,71894.8,-1.89,-15.01,-13.69,0,*54
1513044482.6,28777,5.0,71880.5,-1.89,-15.39,-15.25,0,*50
1513044483.81,28778,4.94,71898.5,-1.89,-15.71,-15.63,0,*51
1513044485.06,28779,5.0,71914.3,-1.87,-16.23,-15.11,0,*5F
1513044486.29,28780,5.0,71924.8,-1.89,-15.75,-14.51,0,*52
1513044487.54,28781,5.0,71916.8,-1.87,-14.93,-13.73,0,*53
1513044488.79,28782,5.0,71906.5,-1.87,-13.73,-12.65,0,*5F
1513044490.06,28783,5.0,71928.8,-1.87,-12.79,-11.51,0,*51
1513044491.3,28784,4.94,71936.8,-1.89,-11.67,-10.31,0,*53
1513044492.52,28785,5.0,71952.5,-1.87,-10.15,-9.05,0,*67
1513044493.77,28786,5.0,71948.8,-1.89,-9.37,-8.81,0,*5F
1513044494.99,28787,4.94,71970.5,-1.87,-8.45,-8.45,0,*5C
1513044496.23,28788,4.94,71976.3,-1.87,-7.73,-8.25,0,*5F
1513044497.47,28789,4.94,71974.8,-1.87,-7.73,-8.55,0,*59
1513044498.69,28790,4.94,71972.3,-1.87,-8.63,-8.93,0,*55
1513044499.93,28791,5.0,71970.8,-1.87,-9.41,-8.93,0,*55
1513044501.2,28792,5.0,71998.3,-1.87,-9.45,-8.11,0,*58
1513044502.44,28793,5.0,72002.5,-1.85,-9.49,-7.05,0,*5D
1513044503.63,28794,5.0,71978.0,-1.85,-8.25,-6.35,0,*53
1513044504.87,28795,5.0,72002.5,-1.87,-7.53,-6.23,0,*59
1513044506.12,28796,5.0,72038.0,-1.87,-9.27,-7.27,0,*52
1513044507.38,28797,5.0,72052.8,-1.87,-12.61,-9.15,0,*64
1513044508.64,28798,4.94,71986.0,-1.87,-15.11,-10.67,0,*56
1513044509.89,28799,4.94,71996.5,-1.85,-17.63,-12.11,0,*51